SCP
0 0 0 0 0 0 0 0 0 0 0 0 0 0 0 0 0 0 0 0 0 0 0 0 0 0 0 0 0 0 -0 0 0 0 0 0 0 0 0 0 0 0 0 0 0 0 0 -0 -0 0 0 0 0 0
0 0 0 0 0 0 0 0 0 0 0 0 0 0 0 0 0 0 0 0 0 0 0 0 0 0 0 -0 0 0 0 0 0 0 0 0 0 0 0 0 0 0 0 0 0 0 0 0 0 0 0 -0 0 0
0 0 0 0 0 0 0 0 0 0 0 0 0 0 0 0 0 0 0 0 0 0 0 0 0 0 0 0 -0 0 -0 -0 -0 0 0 0 0 0 0 0 0 0 0 0 0 0 0 0 0 0 -0 0 0 0
0 0 0 0 0 0 0 0 0 0 0 0 0 0 0 0 0 0 0 0 0 0 0 0 0 0 0 0 0 -0 0 0 0 0 0 0 0 0 0 0 0 0 0 0 0 0 0 -0 -0 0 -0 0 0 0
0 0 0 0 0 0 0 0 0 0 0 0 0 0 0 0 0 0 0 0 0 0 0 0 0 0 0 0 -0 0 -0 -0 -0 0 0 0 0 0 0 0 0 0 0 0 0 0 0 0 0 0 0 0 0 0
0 0 0 0 0 0 0 0 0 0 0 0 0 0 0 0 0 0 0 0 0 0 0 0 0 0 0 0 0 0 -0 -0 -0 -0 0 -0 0 0 0 0 0 0 0 0 0 0 0 0 0 0 0 0 0 0
0 0 0 0 0 0 0 0 0 0 0 0 0 0 0 0 0 0 0 0 0 0 0 0 0 0 0 0 -0 -0 0 -0 -0 -0 -0 0 0 0 0 0 -0 0 0 0 0 0 0 0 0 0 0 0 0 0
0 0 0 0 0 0 0 0 0 0 0 0 0 0 0 0 0 0 0 -0 0 0 0 0 0 0 0 0 -0 0 -0 -0 -0 -0 0 0 0 0 0 0 -0 0 0 0 0 0 0 0 0 0 0 0 0 0
0 0 0 0 0 0 0 0 0 0 0 0 0 0 0 0 0 0 0 0 0 0 0 0 0 0 0 0 0 -0 -0 -0 -0 -0 0 0 0 0 0 -0 0 0 0 0 0 0 0 0 0 0 0 0 0 0
0 0 0 0 0 0 0 0 0 0 0 0 0 0 0 0 0 0 0 0 0 0 0 0 0 0 0 0 -0 -0 -0 -0 -0 -0 -0 0 0 0 0 0 0 0 0 0 0 0 0 0 0 0 0 0 0 0
0 0 0 0 0 0 0 0 0 0 0 0 0 0 0 0 0 0 0 0 0 0 0 0 0 0 0 0 0 -0 -0 -0 0 0 0 0 0 0 0 0 0 0 0 0 0 0 0 0 0 0 0 0 0 0
0 0 0 0 0 0 0 0 0 0 0 0 0 0 0 0 0 0 0 0 0 0 0 0 0 0 0 0 -0 -0 -0 -0 0 -0 0 0 0 0 0 0 0 0 0 0 0 0 0 0 0 0 0 0 0 0
0 0 0 0 0 0 0 0 0 0 0 0 0 0 0 0 0 0 0 0 0 0 0 0 0 0 0 0 0 -0 -0 -0 -0 0 0 0 0 0 0 0 0 0 0 0 0 0 0 0 0 0 0 0 0 0
0 0 0 0 0 0 0 0 0 0 0 0 0 0 0 0 0 0 0 0 0 0 0 0 0 0 0 0 0 -0 -0 -0 -0 0 0 0 -0 0 0 0 0 0 0 0 0 0 0 0 0 0 0 0 0 0
0 0 0 0 0 0 0 0 0 0 0 0 0 0 0 0 0 0 0 0 0 0 0 0 0 0 0 0 0 -0 -0 -0 -0 -0 0 0 0 0 0 0 0 0 0 0 0 0 0 0 0 0 0 0 0 0
0 0 0 0 0 0 0 0 0 0 0 0 0 0 0 0 0 0 0 0 0 0 0 0 0 0 0 0 0 -0 -0 -0 -0 -0 0 0 0 0 0 0 0 0 0 0 0 0 0 0 0 0 0 0 0 0
0 0 0 0 0 0 0 0 0 0 0 0 0 0 0 0 0 0 0 0 0 0 0 0 0 0 0 0 0 -0 -0 -0 -0 0 0 0 0 0 0 0 0 0 0 0 0 0 0 0 0 0 0 0 0 0
0 0 0 0 0 0 0 0 0 0 0 0 0 0 0 0 0 0 0 0 0 0 0 0 0 0 0 0 -0 -0 -0 -0 0 0 0 -0 -0 0 0 0 0 0 0 0 0 0 0 0 0 0 0 -0 0 0
0 0 0 0 0 0 0 0 0 0 0 0 0 0 0 0 0 0 0 0 0 0 0 0 0 0 0 0 -0 -0 -0 -0 0 0 0 0 0 0 0 0 0 0 0 0 0 0 0 0 0 0 0 0 -0 -0
0 0 0 0 0 0 0 0 0 0 0 0 0 0 0 0 0 0 0 0 0 0 0 0 0 0 0 0 -0 -0 -0 0 0 0 0 0 0 0 0 0 0 0 0 0 0 0 0 0 0 0 -0 0 -0 -0
0 0 0 0 0 0 0 0 0 0 0 0 0 0 0 0 0 0 0 0 0 0 0 0 0 0 0 -0 0 0 0 -0 0 0 0 0 0 0 0 0 0 0 0 0 0 0 0 0 -0 0 0 0 0 -0
0 0 0 0 0 0 0 0 0 0 0 0 0 0 0 0 0 0 0 0 0 0 0 0 0 0 0 0 0 0 0 0 0 0 0 0 0 0 0 0 0 0 0 -0 -0 -0 -0 0 0 0 0 -0 -0 0
0 0 0 0 0 0 0 0 0 0 0 0 0 0 0 0 0 0 0 0 0 0 0 0 0 0 0 0 0 0 0 0 0 0 0 0 0 0 0 0 0 0 -0 -0 0 0 0 0 0 -0 -0 0 0 0
0 0 0 0 0 0 0 0 0 0 0 0 0 0 0 0 0 0 0 0 0 0 0 0 0 0 0 0 0 0 0 0 0 0 0 0 0 0 0 0 0 0 0 0 0 0 0 -0 -0 0 -0 -0 -0 0
0 0 0 0 0 0 0 0 0 0 0 0 0 0 0 0 0 0 0 0 0 0 0 0 0 0 0 0 0 0 0 0 0 0 0 0 0 0 0 0 0 0 0 0 0 0 0 0 0 0 0 0 0 0
0 0 0 0 0 0 0 0 0 0 0 0 0 0 0 0 0 0 0 0 0 0 0 0 0 0 0 0 0 0 0 0 0 0 0 0 0 0 0 0 0 0 0 0 0 0 0 0 0 0 0 0 0 0
0 0 0 0 0 0 0 0 0 -0 -0 -0 0 0 0 0 0 0 0 0 0 0 0 0 0 0 0 0 0 0 0 0 0 0 0 0 0 0 0 0 0 -0 0 0 0 0 0 0 0 0 0 0 0 0
0 0 0 0 0 0 0 0 0 -0 -0 -0 -0 -0 -0 -0 0 0 0 0 0 0 -0 0 0 -0 -0 -0 0 0 0 0 0 0 0 0 0 0 0 0 0 -0 0 0 0 0 0 0 0 0 0 0 0 0
0 0 0 0 0 0 0 0 0 0 -0 -0 -0 -0 0 0 0 0 0 0 0 0 -0 -0 0 0 -0 -0 0 0 0 0 0 0 0 0 0 0 0 0 0 -0 -0 0 0 0 0 0 0 0 0 0 0 0
0 0 0 0 0 0 0 0 0 0 0 -0 0 0 0 0 0 0 0 0 0 0 -0 -0 0 0 -0 -0 -0 0 0 0 0 0 0 0 0 0 0 -0 -0 0 0 0 0 0 0 0 0 0 0 0 0 0
0 0 0 0 0 0 0 -0 0 0 0 0 0 0 0 0 0 0 0 0 0 0 0 0 0 -0 -0 -0 -0 -0 -0 -0 -0 0 0 0 0 0 0 0 0 0 0 0 0 0 0 0 0 0 0 0 0 0
0 0 0 0 0 0 0 0 0 0 0 0 0 0 0 0 0 0 0 0 0 0 0 0 0 0 0 0 0 0 0 0 0 0 0 0 0 0 0 0 0 0 0 0 0 0 0 0 0 0 0 0 0 0
0 0 0 0 0 0 0 0 0 0 0 0 0 0 0 0 0 0 0 0 0 0 0 0 0 0 0 0 0 0 0 0 0 0 0 0 0 0 0 0 0 0 0 0 0 0 0 0 0 0 0 0 0 0
Wind_Speed_500mb
64 64 61 62 59 55 55 55 54 50 33 28 31 33 30 27 30 27 23 2 10 14 43 32 24 27 33 24 6 23 24 5 8 11 9 7 5 7 9 8 13 10 12 8 8 10 9 51 37 5 10 24 41 33
61 60 63 64 57 55 54 54 49 47 31 29 29 29 26 24 29 26 20 19 20 23 40 62 38 25 34 37 35 10 12 20 8 6 4 6 5 7 12 9 9 7 6 7 7 5 25 39 20 32 49 47 36 48
63 58 63 63 56 56 54 51 46 37 27 28 29 27 22 24 27 27 30 25 20 21 37 13 4 20 26 22 19 10 11 13 15 19 5 3 6 4 7 6 8 8 14 5 4 9 27 45 39 51 61 59 56 57
66 61 66 60 56 56 54 47 40 30 28 27 29 22 21 24 27 30 29 20 9 12 9 16 26 20 7 16 14 19 33 43 43 12 4 3 4 2 5 5 7 6 19 14 8 13 18 50 41 51 70 76 77 72
74 71 68 53 51 53 52 43 39 27 27 25 24 19 22 24 29 27 10 2 6 5 9 29 39 7 7 13 23 20 15 22 13 6 3 3 5 6 2 2 6 19 9 7 5 20 12 29 40 49 64 62 74 81
80 68 52 46 46 52 46 38 35 27 25 26 20 20 21 25 27 17 4 2 4 10 8 7 22 11 19 19 14 14 14 11 10 5 5 7 8 12 4 4 12 31 23 10 5 34 46 48 56 65 78 66 62 69
70 55 46 45 44 44 38 34 36 30 26 23 19 21 23 23 20 8 4 2 5 5 5 11 14 11 22 17 8 7 13 7 9 6 5 8 13 10 4 6 31 30 9 22 23 26 41 36 40 66 80 80 75 77
54 42 40 41 42 36 32 30 28 26 22 19 21 23 18 19 18 1 3 6 14 9 7 5 9 17 9 10 8 5 4 4 6 7 7 7 10 10 4 22 38 18 9 9 4 38 49 63 66 69 75 75 76 71
37 37 39 40 35 30 28 27 25 22 19 19 20 17 19 10 7 2 7 11 12 11 6 4 4 8 12 8 8 4 3 2 2 3 4 5 4 6 11 33 25 23 18 35 46 50 55 60 61 62 66 76 77 76
27 34 34 36 33 30 29 28 24 18 17 16 14 9 8 5 8 6 5 3 9 11 11 8 10 8 7 7 6 6 7 1 3 3 6 4 2 7 19 16 21 28 37 41 41 39 46 47 55 59 61 64 70 64
24 31 30 29 29 26 23 22 19 16 12 8 9 8 10 10 7 4 6 8 11 7 12 15 18 9 15 4 5 2 4 1 3 3 2 3 1 3 12 11 11 16 28 32 40 39 41 45 53 58 59 64 63 63
21 26 28 21 19 24 23 16 15 11 9 9 7 8 9 9 6 4 5 5 8 6 9 9 11 16 9 7 2 5 2 2 3 3 4 1 1 10 8 18 24 29 40 42 40 42 45 46 49 55 59 59 55 52
19 26 30 23 21 21 19 17 13 10 9 6 5 5 5 6 6 8 8 6 5 7 8 7 7 7 5 7 2 2 3 2 3 1 3 2 11 15 21 27 33 38 38 37 44 35 37 44 46 49 51 48 49 49
17 25 26 24 22 19 18 16 12 11 10 5 5 6 8 7 9 9 8 7 8 10 18 17 11 4 3 4 3 3 2 3 0 3 6 5 18 21 27 31 33 35 43 31 24 36 35 38 40 39 40 43 43 44
22 28 29 28 23 22 19 15 14 15 9 8 7 8 11 17 14 10 15 15 15 14 15 12 6 4 4 3 3 2 2 4 3 6 5 24 28 32 38 37 31 21 22 29 36 32 36 39 40 41 38 37 33 35
28 36 37 27 23 21 18 18 16 15 7 8 12 7 14 5 11 10 6 16 10 10 11 3 1 3 4 1 2 4 3 6 5 4 23 35 36 41 40 31 24 29 37 37 34 34 39 41 40 38 36 36 38 39
40 37 26 25 21 20 23 20 13 11 7 8 12 20 27 26 24 15 8 7 8 5 2 2 3 5 2 2 3 5 6 3 7 24 42 39 43 49 44 30 26 31 31 32 35 38 40 38 41 45 46 39 36 36
41 28 26 25 23 20 20 16 9 10 12 16 11 8 21 24 15 15 12 13 11 5 6 6 2 0 4 4 6 5 7 9 21 47 45 46 51 45 35 29 27 30 34 36 36 38 40 40 43 41 42 41 40 39
31 31 29 22 18 11 10 11 11 9 17 13 21 27 23 21 22 23 21 19 16 12 5 3 2 5 6 9 8 6 10 23 40 46 46 44 32 30 27 29 25 29 36 37 40 39 38 38 39 40 42 42 42 39
28 29 22 20 25 8 4 8 11 9 8 6 13 17 15 12 13 13 14 14 15 7 4 4 7 6 6 4 6 7 26 44 39 40 38 36 41 28 27 34 34 27 34 36 38 40 40 37 35 37 39 37 34 33
39 34 23 11 18 11 7 8 11 10 8 10 12 12 9 12 11 10 15 20 13 8 7 13 12 7 5 7 6 7 31 54 47 40 37 30 25 28 43 40 35 36 37 40 42 40 38 37 40 36 34 30 27 27
37 27 12 16 8 8 11 14 10 6 8 10 11 10 10 6 8 7 13 12 9 11 13 11 10 11 8 7 6 5 19 54 49 38 34 20 30 39 51 45 45 43 41 43 42 42 39 39 38 35 31 30 28 28
26 22 9 12 10 13 9 11 8 7 4 6 5 5 6 7 7 13 5 6 8 12 14 12 10 11 8 8 11 11 17 43 53 41 39 31 24 26 39 46 45 44 45 41 40 41 41 39 36 34 33 30 30 28
22 13 8 10 15 9 5 8 9 7 6 5 4 5 4 6 10 4 3 6 8 12 16 14 14 13 12 12 16 15 17 28 52 50 38 49 43 34 29 43 43 37 43 43 41 39 38 38 37 35 34 34 32 29
8 10 8 9 10 6 5 5 7 4 6 7 5 3 2 6 4 2 4 6 13 13 12 18 17 16 14 13 19 18 18 27 38 58 60 44 48 41 34 38 41 37 43 44 40 37 35 35 34 36 36 34 32 31
7 14 13 12 6 7 7 4 7 8 4 5 4 4 4 4 2 6 5 5 7 7 10 15 19 20 19 18 19 23 18 25 30 42 58 56 51 54 37 45 47 46 42 36 35 35 34 35 37 40 43 45 42 38
5 8 11 12 7 6 7 10 8 4 6 5 5 5 4 3 5 6 3 4 2 2 0 4 5 5 10 15 20 24 20 24 20 31 39 59 50 59 51 40 50 48 46 34 18 28 33 34 32 35 40 41 41 40
8 6 8 7 10 11 5 4 5 6 7 7 9 3 5 8 6 3 3 10 17 17 20 26 30 24 28 11 6 17 24 30 33 25 24 37 56 55 58 58 48 47 38 34 24 25 28 30 27 31 37 33 30 36
8 8 8 6 8 9 10 7 5 3 4 7 7 5 7 5 11 19 18 16 14 16 16 12 11 11 20 26 24 11 23 32 33 37 42 35 40 43 40 39 63 62 45 31 30 32 31 29 30 25 29 25 25 32
8 14 7 6 5 6 3 3 11 10 5 5 7 15 19 17 16 16 17 15 13 12 11 13 23 18 14 19 19 13 13 20 33 43 42 22 25 31 37 43 52 47 34 28 27 25 30 21 21 27 35 31 28 24
4 13 6 4 3 3 11 8 8 3 18 20 30 45 39 35 28 17 10 14 18 13 12 12 12 14 10 14 15 16 17 14 17 32 14 20 33 28 31 30 31 29 30 30 27 30 30 30 32 31 30 30 32 34
9 9 6 2 6 6 4 4 6 10 23 32 20 25 24 11 8 8 14 11 7 3 5 9 6 6 8 7 7 8 8 7 7 8 14 16 18 28 34 29 30 33 32 27 26 26 26 29 32 38 37 32 30 37
6 5 8 4 4 5 6 9 7 6 7 8 8 8 6 6 5 6 8 7 7 6 7 4 2 5 7 11 13 14 13 10 8 7 8 11 12 14 17 27 36 33 28 25 26 27 28 24 26 29 31 32 32 34
Wind_Direction_500mb
303 305 312 312 310 310 314 316 314 315 307 314 317 320 324 325 331 331 335 316 296 272 285 277 279 269 285 279 273 313 328 11 323 0 1 356 319 339 304 322 341 339 339 351 331 19 18 336 322 78 111 121 139 147
299 303 306 306 304 305 310 312 308 311 304 312 312 314 315 323 326 325 313 309 301 269 275 303 293 282 271 285 273 287 278 295 334 333 354 321 324 318 310 337 347 12 18 306 27 354 299 325 50 79 108 115 126 136
293 298 300 303 300 301 306 309 304 307 302 303 301 305 308 321 322 319 308 311 315 292 311 310 339 330 320 309 290 255 282 321 338 331 321 291 300 331 335 359 300 331 9 335 264 17 359 17 61 86 100 99 106 120
291 292 292 294 294 298 301 302 300 299 294 292 294 300 308 317 318 320 309 319 296 304 295 287 316 325 294 336 335 303 290 284 305 309 286 298 297 349 338 310 343 325 313 319 329 356 340 30 53 92 98 100 95 96
286 287 281 282 288 295 295 296 293 285 289 295 293 298 310 311 314 325 316 311 318 299 291 293 315 336 340 310 330 337 331 307 301 311 285 309 278 294 53 322 20 336 328 349 341 343 27 53 76 94 103 102 97 95
275 275 275 277 288 288 290 292 286 281 281 285 286 300 303 308 317 336 199 40 65 334 306 301 318 296 324 319 291 319 326 309 310 290 310 303 8 360 9 29 7 359 24 38 49 63 75 85 90 94 101 109 111 106
267 267 269 275 279 282 289 287 284 278 277 278 287 294 296 300 305 300 234 234 305 317 271 290 298 281 319 323 277 275 301 311 323 321 322 325 5 10 35 357 328 344 54 87 72 69 73 88 92 96 102 110 112 110
258 260 270 276 278 282 283 287 281 275 272 280 289 289 287 285 294 122 54 290 254 277 262 282 280 312 320 305 288 259 290 301 335 352 360 22 9 11 33 323 331 341 68 229 124 103 102 104 110 105 106 113 101 104
246 255 265 274 279 273 273 272 273 271 276 286 286 281 275 244 213 222 273 300 256 229 296 271 272 269 315 292 286 280 291 297 13 349 42 65 357 22 317 316 7 57 113 118 113 110 108 103 103 111 116 113 113 115
257 272 277 284 276 262 262 268 268 267 279 277 268 244 228 217 206 265 271 200 164 212 229 247 245 262 290 315 304 327 325 328 21 23 92 63 79 339 349 33 84 93 116 121 114 113 112 108 111 113 110 119 116 116
264 271 278 279 270 262 254 257 260 276 274 233 217 234 200 218 236 207 243 209 188 224 221 236 234 254 292 197 260 244 313 23 20 317 2 18 32 74 8 93 117 110 121 120 126 124 131 133 130 129 127 131 132 125
256 268 268 281 252 249 251 244 252 254 234 227 223 227 202 209 196 216 211 237 215 232 214 213 267 250 280 241 305 323 290 15 299 14 59 305 131 134 104 112 119 130 130 122 124 132 126 129 131 131 131 130 128 130
256 262 257 251 258 246 238 237 244 243 237 235 205 209 207 179 200 208 220 231 238 222 227 256 300 273 246 226 99 17 300 309 123 24 268 229 148 146 141 138 129 135 135 125 113 113 129 131 134 134 135 137 135 131
248 248 236 235 249 244 231 233 235 216 190 191 204 287 199 216 233 198 203 204 229 251 284 301 284 253 255 203 153 272 234 261 137 263 236 167 165 154 147 148 142 136 128 111 121 137 138 137 136 134 134 138 138 140
254 229 234 239 231 222 219 225 212 203 190 202 198 234 225 239 262 269 260 268 279 294 293 297 284 261 274 243 201 225 265 268 245 247 200 157 163 164 151 142 131 137 143 133 144 143 146 142 142 141 143 146 150 147
229 230 232 229 215 214 210 201 200 192 217 218 227 255 241 305 279 262 270 287 281 253 284 270 345 340 273 159 221 259 258 252 257 224 150 152 158 158 146 137 137 149 147 149 141 143 147 145 144 140 141 142 139 139
224 226 225 202 188 187 181 182 189 207 215 231 240 238 254 278 264 269 298 293 238 276 244 116 278 233 317 292 265 186 214 233 193 155 159 154 160 155 145 141 151 157 158 156 153 153 149 144 142 140 137 137 135 134
220 219 181 176 180 172 182 180 222 220 234 240 244 255 228 237 259 275 282 293 256 229 190 228 227 320 220 221 273 243 258 277 176 158 143 139 144 146 151 158 161 168 164 163 159 155 154 152 148 143 138 137 136 133
220 192 173 174 175 166 161 204 219 246 237 250 258 266 261 257 260 270 272 277 237 235 234 220 215 217 235 223 240 225 181 164 147 161 167 170 172 174 174 173 169 175 171 168 165 163 161 158 152 149 147 147 143 141
191 173 179 178 180 178 188 220 220 252 254 249 247 247 245 247 264 265 248 215 212 201 199 220 219 228 228 304 278 251 175 165 166 164 179 176 186 202 200 185 178 169 162 165 169 162 157 159 161 157 153 151 152 152
177 178 175 178 191 207 234 236 234 240 266 253 269 262 258 243 249 231 211 198 184 206 232 238 250 234 262 292 280 215 186 176 176 182 192 199 218 209 187 186 184 179 172 167 165 164 164 164 161 159 158 158 152 142
178 168 185 184 184 208 253 232 240 279 255 258 272 237 251 236 224 210 172 184 211 220 214 227 244 229 242 263 245 208 200 191 191 193 198 198 187 186 186 184 177 175 172 170 170 169 169 168 168 167 165 159 154 152
152 152 160 193 208 213 250 214 232 231 219 254 227 215 238 210 188 170 191 227 240 216 208 213 223 230 237 237 233 200 196 201 193 191 189 187 176 184 186 179 178 173 170 167 165 163 163 164 169 166 162 166 168 171
155 178 202 204 213 240 210 217 219 246 249 255 251 250 188 164 151 161 223 235 213 203 206 213 208 219 227 234 220 224 208 204 205 196 197 180 185 189 193 187 182 176 171 163 163 164 168 170 169 171 174 177 182 186
174 211 206 218 205 218 250 229 205 199 241 219 234 222 182 152 113 185 229 254 211 207 220 218 215 232 235 259 230 226 220 208 207 202 205 186 181 185 196 194 189 182 180 182 183 184 189 195 197 198 198 201 202 205
207 199 186 203 212 202 223 244 200 210 239 233 207 124 106 77 98 233 232 236 219 223 226 228 233 240 252 256 233 222 223 203 205 196 204 200 180 183 189 189 185 186 187 193 209 213 215 218 221 221 222 222 221 223
230 230 222 224 239 248 280 268 255 247 248 225 174 156 120 122 243 269 240 191 96 110 261 190 182 239 275 255 232 215 209 190 186 195 191 197 197 188 189 190 190 191 195 203 227 212 214 218 223 221 218 221 225 228
252 257 203 197 214 220 240 257 235 225 212 188 125 149 192 184 225 174 145 115 113 103 112 116 105 61 44 59 185 201 197 195 191 189 193 196 200 207 204 207 201 201 206 212 224 209 210 218 215 217 213 214 215 214
237 229 215 248 228 216 225 223 255 330 120 177 132 172 158 215 112 109 103 110 119 136 95 111 157 99 63 55 60 108 195 192 190 188 190 180 185 193 192 208 206 197 201 219 218 216 220 230 224 221 218 213 214 213
245 204 219 238 207 229 256 263 325 340 147 85 177 138 117 113 130 127 115 110 110 102 105 116 78 70 72 80 71 72 75 142 168 169 156 153 169 174 175 178 188 199 211 190 190 201 185 207 218 216 210 220 222 223
249 197 229 241 275 328 348 338 358 92 143 141 134 118 115 109 108 102 108 108 98 84 76 80 75 55 69 83 89 80 80 109 127 152 151 158 173 173 173 174 179 189 192 196 205 206 217 218 208 204 211 225 234 230
197 199 158 69 347 338 269 140 30 96 120 126 120 129 124 99 86 107 113 121 127 152 100 78 66 85 76 46 38 48 50 50 68 116 118 154 171 195 201 191 191 196 200 204 208 201 201 215 228 229 222 220 232 230
207 188 156 170 313 348 175 168 89 78 78 105 139 130 105 109 120 140 140 154 152 139 136 98 36 307 336 324 315 306 301 278 253 230 208 191 185 184 186 191 189 188 192 193 201 205 214 219 213 207 212 225 230 231
Wind_Speed_850mb
64 64 61 62 59 55 55 55 54 50 33 28 31 33 30 27 30 27 23 2 10 14 43 32 24 27 33 24 6 23 24 5 8 11 9 7 5 7 9 8 13 10 12 8 8 10 9 51 37 5 10 24 41 33
61 60 63 64 57 55 54 54 49 47 31 29 29 29 26 24 29 26 20 19 20 23 40 62 38 25 34 37 35 10 12 20 8 6 4 6 5 7 12 9 9 7 6 7 7 5 25 39 20 32 49 47 36 48
63 58 63 63 56 56 54 51 46 37 27 28 29 27 22 24 27 27 30 25 20 21 37 13 4 20 26 22 19 10 11 13 15 19 5 3 6 4 7 6 8 8 14 5 4 9 27 45 39 51 61 59 56 57
66 61 66 60 56 56 54 47 40 30 28 27 29 22 21 24 27 30 29 20 9 12 9 16 26 20 7 16 14 19 33 43 43 12 4 3 4 2 5 5 7 6 19 14 8 13 18 50 41 51 70 76 77 72
74 71 68 53 51 53 52 43 39 27 27 25 24 19 22 24 29 27 10 2 6 5 9 29 39 7 7 13 23 20 15 22 13 6 3 3 5 6 2 2 6 19 9 7 5 20 12 29 40 49 64 62 74 81
80 68 52 46 46 52 46 38 35 27 25 26 20 20 21 25 27 17 4 2 4 10 8 7 22 11 19 19 14 14 14 11 10 5 5 7 8 12 4 4 12 31 23 10 5 34 46 48 56 65 78 66 62 69
70 55 46 45 44 44 38 34 36 30 26 23 19 21 23 23 20 8 4 2 5 5 5 11 14 11 22 17 8 7 13 7 9 6 5 8 13 10 4 6 31 30 9 22 23 26 41 36 40 66 80 80 75 77
54 42 40 41 42 36 32 30 28 26 22 19 21 23 18 19 18 1 3 6 14 9 7 5 9 17 9 10 8 5 4 4 6 7 7 7 10 10 4 22 38 18 9 9 4 38 49 63 66 69 75 75 76 71
37 37 39 40 35 30 28 27 25 22 19 19 20 17 19 10 7 2 7 11 12 11 6 4 4 8 12 8 8 4 3 2 2 3 4 5 4 6 11 33 25 23 18 35 46 50 55 60 61 62 66 76 77 76
27 34 34 36 33 30 29 28 24 18 17 16 14 9 8 5 8 6 5 3 9 11 11 8 10 8 7 7 6 6 7 1 3 3 6 4 2 7 19 16 21 28 37 41 41 39 46 47 55 59 61 64 70 64
24 31 30 29 29 26 23 22 19 16 12 8 9 8 10 10 7 4 6 8 11 7 12 15 18 9 15 4 5 2 4 1 3 3 2 3 1 3 12 11 11 16 28 32 40 39 41 45 53 58 59 64 63 63
21 26 28 21 19 24 23 16 15 11 9 9 7 8 9 9 6 4 5 5 8 6 9 9 11 16 9 7 2 5 2 2 3 3 4 1 1 10 8 18 24 29 40 42 40 42 45 46 49 55 59 59 55 52
19 26 30 23 21 21 19 17 13 10 9 6 5 5 5 6 6 8 8 6 5 7 8 7 7 7 5 7 2 2 3 2 3 1 3 2 11 15 21 27 33 38 38 37 44 35 37 44 46 49 51 48 49 49
17 25 26 24 22 19 18 16 12 11 10 5 5 6 8 7 9 9 8 7 8 10 18 17 11 4 3 4 3 3 2 3 0 3 6 5 18 21 27 31 33 35 43 31 24 36 35 38 40 39 40 43 43 44
22 28 29 28 23 22 19 15 14 15 9 8 7 8 11 17 14 10 15 15 15 14 15 12 6 4 4 3 3 2 2 4 3 6 5 24 28 32 38 37 31 21 22 29 36 32 36 39 40 41 38 37 33 35
28 36 37 27 23 21 18 18 16 15 7 8 12 7 14 5 11 10 6 16 10 10 11 3 1 3 4 1 2 4 3 6 5 4 23 35 36 41 40 31 24 29 37 37 34 34 39 41 40 38 36 36 38 39
40 37 26 25 21 20 23 20 13 11 7 8 12 20 27 26 24 15 8 7 8 5 2 2 3 5 2 2 3 5 6 3 7 24 42 39 43 49 44 30 26 31 31 32 35 38 40 38 41 45 46 39 36 36
41 28 26 25 23 20 20 16 9 10 12 16 11 8 21 24 15 15 12 13 11 5 6 6 2 0 4 4 6 5 7 9 21 47 45 46 51 45 35 29 27 30 34 36 36 38 40 40 43 41 42 41 40 39
31 31 29 22 18 11 10 11 11 9 17 13 21 27 23 21 22 23 21 19 16 12 5 3 2 5 6 9 8 6 10 23 40 46 46 44 32 30 27 29 25 29 36 37 40 39 38 38 39 40 42 42 42 39
28 29 22 20 25 8 4 8 11 9 8 6 13 17 15 12 13 13 14 14 15 7 4 4 7 6 6 4 6 7 26 44 39 40 38 36 41 28 27 34 34 27 34 36 38 40 40 37 35 37 39 37 34 33
39 34 23 11 18 11 7 8 11 10 8 10 12 12 9 12 11 10 15 20 13 8 7 13 12 7 5 7 6 7 31 54 47 40 37 30 25 28 43 40 35 36 37 40 42 40 38 37 40 36 34 30 27 27
37 27 12 16 8 8 11 14 10 6 8 10 11 10 10 6 8 7 13 12 9 11 13 11 10 11 8 7 6 5 19 54 49 38 34 20 30 39 51 45 45 43 41 43 42 42 39 39 38 35 31 30 28 28
26 22 9 12 10 13 9 11 8 7 4 6 5 5 6 7 7 13 5 6 8 12 14 12 10 11 8 8 11 11 17 43 53 41 39 31 24 26 39 46 45 44 45 41 40 41 41 39 36 34 33 30 30 28
22 13 8 10 15 9 5 8 9 7 6 5 4 5 4 6 10 4 3 6 8 12 16 14 14 13 12 12 16 15 17 28 52 50 38 49 43 34 29 43 43 37 43 43 41 39 38 38 37 35 34 34 32 29
8 10 8 9 10 6 5 5 7 4 6 7 5 3 2 6 4 2 4 6 13 13 12 18 17 16 14 13 19 18 18 27 38 58 60 44 48 41 34 38 41 37 43 44 40 37 35 35 34 36 36 34 32 31
7 14 13 12 6 7 7 4 7 8 4 5 4 4 4 4 2 6 5 5 7 7 10 15 19 20 19 18 19 23 18 25 30 42 58 56 51 54 37 45 47 46 42 36 35 35 34 35 37 40 43 45 42 38
5 8 11 12 7 6 7 10 8 4 6 5 5 5 4 3 5 6 3 4 2 2 0 4 5 5 10 15 20 24 20 24 20 31 39 59 50 59 51 40 50 48 46 34 18 28 33 34 32 35 40 41 41 40
8 6 8 7 10 11 5 4 5 6 7 7 9 3 5 8 6 3 3 10 17 17 20 26 30 24 28 11 6 17 24 30 33 25 24 37 56 55 58 58 48 47 38 34 24 25 28 30 27 31 37 33 30 36
8 8 8 6 8 9 10 7 5 3 4 7 7 5 7 5 11 19 18 16 14 16 16 12 11 11 20 26 24 11 23 32 33 37 42 35 40 43 40 39 63 62 45 31 30 32 31 29 30 25 29 25 25 32
8 14 7 6 5 6 3 3 11 10 5 5 7 15 19 17 16 16 17 15 13 12 11 13 23 18 14 19 19 13 13 20 33 43 42 22 25 31 37 43 52 47 34 28 27 25 30 21 21 27 35 31 28 24
4 13 6 4 3 3 11 8 8 3 18 20 30 45 39 35 28 17 10 14 18 13 12 12 12 14 10 14 15 16 17 14 17 32 14 20 33 28 31 30 31 29 30 30 27 30 30 30 32 31 30 30 32 34
9 9 6 2 6 6 4 4 6 10 23 32 20 25 24 11 8 8 14 11 7 3 5 9 6 6 8 7 7 8 8 7 7 8 14 16 18 28 34 29 30 33 32 27 26 26 26 29 32 38 37 32 30 37
6 5 8 4 4 5 6 9 7 6 7 8 8 8 6 6 5 6 8 7 7 6 7 4 2 5 7 11 13 14 13 10 8 7 8 11 12 14 17 27 36 33 28 25 26 27 28 24 26 29 31 32 32 34
Wind_Direction_850mb
303 305 312 312 310 310 314 316 314 315 307 314 317 320 324 325 331 331 335 316 296 272 285 277 279 269 285 279 273 313 328 11 323 0 1 356 319 339 304 322 341 339 339 351 331 19 18 336 322 78 111 121 139 147
299 303 306 306 304 305 310 312 308 311 304 312 312 314 315 323 326 325 313 309 301 269 275 303 293 282 271 285 273 287 278 295 334 333 354 321 324 318 310 337 347 12 18 306 27 354 299 325 50 79 108 115 126 136
293 298 300 303 300 301 306 309 304 307 302 303 301 305 308 321 322 319 308 311 315 292 311 310 339 330 320 309 290 255 282 321 338 331 321 291 300 331 335 359 300 331 9 335 264 17 359 17 61 86 100 99 106 120
291 292 292 294 294 298 301 302 300 299 294 292 294 300 308 317 318 320 309 319 296 304 295 287 316 325 294 336 335 303 290 284 305 309 286 298 297 349 338 310 343 325 313 319 329 356 340 30 53 92 98 100 95 96
286 287 281 282 288 295 295 296 293 285 289 295 293 298 310 311 314 325 316 311 318 299 291 293 315 336 340 310 330 337 331 307 301 311 285 309 278 294 53 322 20 336 328 349 341 343 27 53 76 94 103 102 97 95
275 275 275 277 288 288 290 292 286 281 281 285 286 300 303 308 317 336 199 40 65 334 306 301 318 296 324 319 291 319 326 309 310 290 310 303 8 360 9 29 7 359 24 38 49 63 75 85 90 94 101 109 111 106
267 267 269 275 279 282 289 287 284 278 277 278 287 294 296 300 305 300 234 234 305 317 271 290 298 281 319 323 277 275 301 311 323 321 322 325 5 10 35 357 328 344 54 87 72 69 73 88 92 96 102 110 112 110
258 260 270 276 278 282 283 287 281 275 272 280 289 289 287 285 294 122 54 290 254 277 262 282 280 312 320 305 288 259 290 301 335 352 360 22 9 11 33 323 331 341 68 229 124 103 102 104 110 105 106 113 101 104
246 255 265 274 279 273 273 272 273 271 276 286 286 281 275 244 213 222 273 300 256 229 296 271 272 269 315 292 286 280 291 297 13 349 42 65 357 22 317 316 7 57 113 118 113 110 108 103 103 111 116 113 113 115
257 272 277 284 276 262 262 268 268 267 279 277 268 244 228 217 206 265 271 200 164 212 229 247 245 262 290 315 304 327 325 328 21 23 92 63 79 339 349 33 84 93 116 121 114 113 112 108 111 113 110 119 116 116
264 271 278 279 270 262 254 257 260 276 274 233 217 234 200 218 236 207 243 209 188 224 221 236 234 254 292 197 260 244 313 23 20 317 2 18 32 74 8 93 117 110 121 120 126 124 131 133 130 129 127 131 132 125
256 268 268 281 252 249 251 244 252 254 234 227 223 227 202 209 196 216 211 237 215 232 214 213 267 250 280 241 305 323 290 15 299 14 59 305 131 134 104 112 119 130 130 122 124 132 126 129 131 131 131 130 128 130
256 262 257 251 258 246 238 237 244 243 237 235 205 209 207 179 200 208 220 231 238 222 227 256 300 273 246 226 99 17 300 309 123 24 268 229 148 146 141 138 129 135 135 125 113 113 129 131 134 134 135 137 135 131
248 248 236 235 249 244 231 233 235 216 190 191 204 287 199 216 233 198 203 204 229 251 284 301 284 253 255 203 153 272 234 261 137 263 236 167 165 154 147 148 142 136 128 111 121 137 138 137 136 134 134 138 138 140
254 229 234 239 231 222 219 225 212 203 190 202 198 234 225 239 262 269 260 268 279 294 293 297 284 261 274 243 201 225 265 268 245 247 200 157 163 164 151 142 131 137 143 133 144 143 146 142 142 141 143 146 150 147
229 230 232 229 215 214 210 201 200 192 217 218 227 255 241 305 279 262 270 287 281 253 284 270 345 340 273 159 221 259 258 252 257 224 150 152 158 158 146 137 137 149 147 149 141 143 147 145 144 140 141 142 139 139
224 226 225 202 188 187 181 182 189 207 215 231 240 238 254 278 264 269 298 293 238 276 244 116 278 233 317 292 265 186 214 233 193 155 159 154 160 155 145 141 151 157 158 156 153 153 149 144 142 140 137 137 135 134
220 219 181 176 180 172 182 180 222 220 234 240 244 255 228 237 259 275 282 293 256 229 190 228 227 320 220 221 273 243 258 277 176 158 143 139 144 146 151 158 161 168 164 163 159 155 154 152 148 143 138 137 136 133
220 192 173 174 175 166 161 204 219 246 237 250 258 266 261 257 260 270 272 277 237 235 234 220 215 217 235 223 240 225 181 164 147 161 167 170 172 174 174 173 169 175 171 168 165 163 161 158 152 149 147 147 143 141
191 173 179 178 180 178 188 220 220 252 254 249 247 247 245 247 264 265 248 215 212 201 199 220 219 228 228 304 278 251 175 165 166 164 179 176 186 202 200 185 178 169 162 165 169 162 157 159 161 157 153 151 152 152
177 178 175 178 191 207 234 236 234 240 266 253 269 262 258 243 249 231 211 198 184 206 232 238 250 234 262 292 280 215 186 176 176 182 192 199 218 209 187 186 184 179 172 167 165 164 164 164 161 159 158 158 152 142
178 168 185 184 184 208 253 232 240 279 255 258 272 237 251 236 224 210 172 184 211 220 214 227 244 229 242 263 245 208 200 191 191 193 198 198 187 186 186 184 177 175 172 170 170 169 169 168 168 167 165 159 154 152
152 152 160 193 208 213 250 214 232 231 219 254 227 215 238 210 188 170 191 227 240 216 208 213 223 230 237 237 233 200 196 201 193 191 189 187 176 184 186 179 178 173 170 167 165 163 163 164 169 166 162 166 168 171
155 178 202 204 213 240 210 217 219 246 249 255 251 250 188 164 151 161 223 235 213 203 206 213 208 219 227 234 220 224 208 204 205 196 197 180 185 189 193 187 182 176 171 163 163 164 168 170 169 171 174 177 182 186
174 211 206 218 205 218 250 229 205 199 241 219 234 222 182 152 113 185 229 254 211 207 220 218 215 232 235 259 230 226 220 208 207 202 205 186 181 185 196 194 189 182 180 182 183 184 189 195 197 198 198 201 202 205
207 199 186 203 212 202 223 244 200 210 239 233 207 124 106 77 98 233 232 236 219 223 226 228 233 240 252 256 233 222 223 203 205 196 204 200 180 183 189 189 185 186 187 193 209 213 215 218 221 221 222 222 221 223
230 230 222 224 239 248 280 268 255 247 248 225 174 156 120 122 243 269 240 191 96 110 261 190 182 239 275 255 232 215 209 190 186 195 191 197 197 188 189 190 190 191 195 203 227 212 214 218 223 221 218 221 225 228
252 257 203 197 214 220 240 257 235 225 212 188 125 149 192 184 225 174 145 115 113 103 112 116 105 61 44 59 185 201 197 195 191 189 193 196 200 207 204 207 201 201 206 212 224 209 210 218 215 217 213 214 215 214
237 229 215 248 228 216 225 223 255 330 120 177 132 172 158 215 112 109 103 110 119 136 95 111 157 99 63 55 60 108 195 192 190 188 190 180 185 193 192 208 206 197 201 219 218 216 220 230 224 221 218 213 214 213
245 204 219 238 207 229 256 263 325 340 147 85 177 138 117 113 130 127 115 110 110 102 105 116 78 70 72 80 71 72 75 142 168 169 156 153 169 174 175 178 188 199 211 190 190 201 185 207 218 216 210 220 222 223
249 197 229 241 275 328 348 338 358 92 143 141 134 118 115 109 108 102 108 108 98 84 76 80 75 55 69 83 89 80 80 109 127 152 151 158 173 173 173 174 179 189 192 196 205 206 217 218 208 204 211 225 234 230
197 199 158 69 347 338 269 140 30 96 120 126 120 129 124 99 86 107 113 121 127 152 100 78 66 85 76 46 38 48 50 50 68 116 118 154 171 195 201 191 191 196 200 204 208 201 201 215 228 229 222 220 232 230
207 188 156 170 313 348 175 168 89 78 78 105 139 130 105 109 120 140 140 154 152 139 136 98 36 307 336 324 315 306 301 278 253 230 208 191 185 184 186 191 189 188 192 193 201 205 214 219 213 207 212 225 230 231